DECAYED

CZ-4B DEB, 56087 (Decayed)

Orbit data source: Space-Track

CZ-4B DEB, 56087 was space debris in SSO originally from a launch on Wed, 24 Oct 2018 UTC launched from the Taiyaun Space Center, China (TSC). Debris objects in space refer to the collection of defunct objects orbiting the Earth. Examples of debris include non-operational satellites, rocket bodies, and fragments generated from explosions, collisions, or faulty payload assembly.

Not visible in the next 10 days
Identifier
56087, 2018-081H
Orbit
Decayed
Last TLE update
9 months ago
Origin
Manufacturer
Unknown
Mission
Decayed spacecraft
Bus & Motor
Unknown
Mass
Unknown
Launch date (UTC)
2018-10-24 (7 years ago)
Launch vehicle
Unknown
Launch site
Taiyaun Space Center, China (TSC)
Object type
Payload
Rocket body
Debris
Shape & HBR
Unknown
Radar Cross Section
Small (<0.1 m²)

Expand to show TLE details & history

TLE from 9 months ago
0 CZ-4B DEB
1 56087U 18081H   24282.38455991  .00402236  00000-0  46596-1 0  9994
2 56087  99.4375 150.9491 0099243 201.5956 158.1052 14.79828892 83493
Epoch: 2024-10-08T09:13Z
TLE epoch observation values (Epoch: 2024-10-08T09:13:45.976Z)
Latitude
0.00001°
Longitude
-4.99105°
Altitude
697.476 km
Speed
7.473 km/s
True Right ascension
10h 03m 47s
True Declination
0° 00' 00"
Sunlit
Object was in daylight at epoch
Visualization orbit readout
Visualization observer readout
Orbital elements
Apogee altitude
696.501 km
Perigee altitude
557.459 km
Semi-major axis
7,005.117 km
Eccentricity
0.00992
Inclination
99.4375°
RAAN
150.9491°
Arg. of periapsis
201.5956°
True anomaly
Unknown
Mean anomaly
158.1052°
Eccentric anomaly
Unknown
Mean motion
3.70186 °/min
Orbital period
97.25 mins
BSTAR
0.046596
Loading maneuver chart data...
Loading SW <> Apogee altitude chart data...
Loading historical data...
Loading historical data...
Loading historical data...
Loading historical data...
Loading historical data...
Loading historical data...
Loading historical data...

CZ-4B DEB Visibility

Observer location: undefined°, undefined°

This satellite is decayed
Span
Click to sort rows by Start time (UTC) header in descending order
Start Az.
Max El. time (UTC)
Max El. Az.
Max El.
End time (UTC)
End Az.
|